Location: Columbia
(38.9520°N, 92.3340°W)
Time: 21:56:55
(UTC-05:00)

SJ-11-01 - Visible Passes

Search period start: 18 June 2018 00:00
Search period end: 28 June 2018 00:00
Orbit: 685 x 701 km, 98.1° (Epoch: 18 June)

Date Brightness Start Highest point End Pass type
(mag) Time Alt. Az. Time Alt. Az. Time Alt. Az.
18 Jun 6.2 22:01:32 10° SSW 22:05:30 26° W 22:09:28 10° NW visible
20 Jun 5.5 21:43:06 10° SSW 21:47:32 40° W 21:52:00 10° NNW visible
21 Jun 6.9 22:24:51 10° SW 22:27:39 16° W 22:30:28 10° NW visible
22 Jun 4.8 21:24:56 10° S 21:29:37 62° W 21:34:20 10° NNW visible
23 Jun 6.4 22:05:51 10° SSW 22:09:38 24° W 22:13:27 10° NW visible
24 Jun 4.3 21:07:01 10° SSE 21:11:45 86° ENE 21:16:31 10° NNW visible
25 Jun 5.7 21:47:19 10° SSW 21:51:40 36° W 21:56:01 10° NNW visible
26 Jun 6.9 22:29:22 10° WSW 22:31:48 14° W 22:34:15 10° WNW visible
27 Jun 5.0 21:29:06 10° S 21:33:44 55° W 21:38:23 10° NNW visible
